Simultaneous Nadir Overpasses (SNOs) Predictions

Prediction of SNOs between NOAA-19 and TERRA Satellite Orbit:

Table of predicted SNOs for the next 14.0 days since TLE Epoch: 6/29/2019
Index Date (NOAA-19) Time (NOAA-19) Lat,Lon (NOAA-19) SZA (NOAA-19 ) Date (TERRA) Time (TERRA) Lat,Lon (TERRA) SZA (TERRA ) Distance(km) Time Diff (sec)
1 06/29/2019 10:30:53 -78.49,-135.24 123.91 06/29/2019 10:30:54 -78.49,-135.35 123.91 2.42 1
2 07/01/2019 16:04:14 78.52, -38.72 56.24 07/01/2019 16:04:37 78.50, -38.74 56.23 2.58 23
3 07/01/2019 16:55:18 -78.48, 128.81 123.78 07/01/2019 16:54:05 -78.47, 128.72 123.82 2.30 73
4 07/03/2019 21:37:44 -78.53, 57.91 123.59 07/03/2019 21:38:21 -78.54, 58.03 123.56 2.76 37
5 07/03/2019 22:28:39 78.51,-134.67 56.41 07/03/2019 22:27:48 78.49,-134.59 56.38 2.95 51
6 07/06/2019 03:11:04 78.53, 154.68 56.61 07/06/2019 03:12:05 78.54, 154.58 56.63 2.37 61
7 07/06/2019 04:02:08 -78.49, -37.84 123.40 07/06/2019 04:01:33 -78.51, -37.92 123.41 2.55 35
8 07/08/2019 08:44:39 -78.73,-110.01 123.08 07/08/2019 08:45:49 -78.62,-108.42 123.03 36.78 70
9 07/08/2019 09:35:29 78.52, 58.72 56.85 07/08/2019 09:35:17 78.52, 58.71 56.84 0.25 12
10 07/10/2019 15:08:58 -78.53, 155.41 122.89 07/10/2019 15:09:03 -78.55, 155.38 122.87 2.17 5
11 07/12/2019 20:42:19 78.54,-107.94 57.42 07/12/2019 20:42:48 78.55,-108.05 57.43 2.63 29




NCC Satellite Simultaneous Nadir Overpasses (SNOs) Prediction Service
